San Jose, Costa Rica

10:28 AM CST on June 26, 2017 (GMT -0600)
Juan Santamaria International

Weather History for MROC - April, 2014

Change the Weather History Date:

Friday, April 18, 2014

  Actual Average Record
Temperature  
Mean Temperature 78 °F -  
Max Temperature 89 °F 82 °F 89 °F (1998)
Min Temperature 67 °F 65 °F 60 °F (2007)
Cooling Degree Days 13    
Growing Degree Days 28 (Base 50)    
Moisture  
Dew Point 59 °F    
Average Humidity 57    
Maximum Humidity 88    
Minimum Humidity 26    
Precipitation  
Precipitation 0.00 in 0.25 in - ()
Sea Level Pressure  
Sea Level Pressure 29.92 in    
Wind  
Wind Speed 11 mph ()    
Max Wind Speed 18 mph    
Max Gust Speed -    
Visibility 8.4 miles    
Events Rain , Thunderstorm    
Averages and records for this station are not official NWS values.
T = Trace of Precipitation, MM = Missing Value Source: Averaged Metar Reports

Daily Weather History Graph

Daily Weather History Graph

Search for Another Location

Airport or City:

Trip Planner

Search our weather history database for the weather conditions in past years. The results will help you decide how hot, cold, wet, or windy it might be!

Date:

Astronomy

Apr. 18, 2014 Rise Set
Actual Time 5:25 AM CST 5:47 PM CST
Civil Twilight 5:03 AM CST 6:08 PM CST
Nautical Twilight 4:38 AM CST 6:33 PM CST
Astronomical Twilight 4:13 AM CST 6:59 PM CST
Moon 9:07 PM CST (4/18) 8:09 AM CST (4/18)
Length of Visible Light 13h 05m
Length of Day
12h 22m
Waning Gibbous, 86% of the Moon is Illuminated
Apr 18
Waning Gibbous
Apr 22
Last Quarter
Apr 29
New
May 6
First Quarter
May 14
Full

Hourly Weather History & Observations

Time (CST) Temp. Heat Index Dew Point Humidity Pressure Visibility Wind Dir Wind Speed Gust Speed Precip Events Conditions
12:00 AM 70 °F - 59 °F 61% 29.79 in 12 mi ENE 12.7 mph - -  
12:00 AM 69.8 °F - 59.0 °F 68% 29.96 in - ENE 12.7 mph - N/A   Clear
1:00 AM 69.8 °F - 59.0 °F 68% 29.94 in - ENE 18.4 mph - N/A   Clear
2:00 AM 69.8 °F - 59.0 °F 68% 29.92 in - ENE 17.3 mph - N/A   Clear
3:00 AM 70 °F - 59 °F 60% 29.75 in 12 mi East 15.0 mph - -   Scattered Clouds
3:00 AM 69.8 °F - 59.0 °F 68% 29.92 in 6.2 mi East 15.0 mph - N/A   Partly Cloudy
4:00 AM 69.8 °F - 57.2 °F 64% 29.92 in 6.2 mi East 16.1 mph - N/A   Partly Cloudy
5:00 AM 69.8 °F - 57.2 °F 64% 29.94 in - East 18.4 mph - N/A   Clear
6:00 AM 70 °F - 58 °F 56% 29.82 in 12 mi ENE 12.7 mph - -   Clear
6:00 AM 69.8 °F - 57.2 °F 64% 29.95 in - ENE 12.7 mph - N/A   Clear
7:00 AM 71.6 °F - 57.2 °F 60% 29.98 in - East 8.1 mph - N/A   Clear
8:00 AM 78.8 °F - 57.2 °F 47% 30.00 in - East 9.2 mph - N/A   Clear
9:00 AM 81 °F - 56 °F 32% 29.84 in 12 mi ESE 12.7 mph - -   Clear
9:00 AM 80.6 °F 80.8 °F 57.2 °F 45% 30.00 in - ESE 12.7 mph - N/A   Clear
10:00 AM 84.2 °F 83.5 °F 57.2 °F 40% 29.99 in 6.2 mi ESE 10.4 mph - N/A   Scattered Clouds
11:00 AM 86.0 °F 84.9 °F 57.2 °F 37% 29.98 in 6.2 mi ESE 8.1 mph - N/A   Scattered Clouds
12:00 PM 88 °F - 58 °F 26% 29.79 in 12 mi ESE 8.1 mph - -   Partly Cloudy
12:00 PM 87.8 °F 86.5 °F 57.2 °F 35% 29.97 in 6.2 mi ESE 8.1 mph - N/A   Scattered Clouds
1:00 PM 86.0 °F 85.4 °F 59.0 °F 40% 29.94 in 6.2 mi SSE 6.9 mph - N/A   Scattered Clouds
2:00 PM 82.4 °F 82.5 °F 59.0 °F 45% 29.92 in 6.2 mi ESE 8.1 mph - N/A   Scattered Clouds
3:00 PM 67 °F - 64 °F 88% 29.92 in 9 mi West 9.2 mph - - Rain , Thunderstorm Thunderstorms and Rain
3:00 PM 77.0 °F - 60.8 °F 57% 29.92 in 6.2 mi ESE 6.9 mph - N/A   Scattered Clouds
4:00 PM 75.2 °F - 62.6 °F 65% 29.94 in 6.2 mi North 5.8 mph - N/A   Scattered Clouds
5:00 PM 75.2 °F - 59.0 °F 57% 29.95 in 6.2 mi East 11.5 mph - N/A   Mostly Cloudy
6:00 PM 73 °F - 59 °F 53% 29.81 in 12 mi East 11.5 mph - -   Scattered Clouds
6:00 PM 73.4 °F - 59.0 °F 61% 29.96 in 6.2 mi East 11.5 mph - N/A   Scattered Clouds
7:00 PM 71.6 °F - 60.8 °F 69% 29.97 in 6.2 mi East 9.2 mph - N/A   Partly Cloudy
8:00 PM 69.8 °F - 60.8 °F 73% 29.99 in - East 9.2 mph - N/A   Clear
9:00 PM 70 °F - 60 °F 61% 29.85 in 12 mi East 17.3 mph - -  
9:00 PM 69.8 °F - 60.8 °F 73% - - East 10.4 mph - N/A   Clear
10:00 PM 69.8 °F - 59.0 °F 68% 30.02 in - ENE 8.1 mph - N/A   Clear
11:00 PM 69.8 °F - 57.2 °F 64% 30.01 in - ENE 9.2 mph - N/A   Clear